TimeCDT,TemperatureF,Dew PointF,Humidity,Sea Level PressureIn,VisibilityMPH,Wind Direction,Wind SpeedMPH,Gust SpeedMPH,PrecipitationIn,Events,Conditions,WindDirDegrees,DateUTC
12:15 AM,73.4,60.4,64,29.85,10.0,SSE,6.9,-,N/A,,Mostly Cloudy,160,2013-05-20 05:15:00
12:35 AM,73.4,60.4,64,29.86,10.0,South,8.1,-,N/A,,Scattered Clouds,170,2013-05-20 05:35:00
12:55 AM,72.9,60.8,66,29.85,10.0,South,6.9,-,N/A,,Scattered Clouds,170,2013-05-20 05:55:00
1:15 AM,72.9,61.0,66,29.85,10.0,SSE,6.9,-,N/A,,Mostly Cloudy,160,2013-05-20 06:15:00
1:35 AM,73.0,61.3,67,29.85,10.0,South,6.9,-,N/A,,Scattered Clouds,170,2013-05-20 06:35:00
1:55 AM,73.0,61.9,68,29.85,10.0,South,8.1,-,N/A,,Scattered Clouds,170,2013-05-20 06:55:00
2:15 AM,73.0,62.6,70,29.85,10.0,South,9.2,-,N/A,,Scattered Clouds,180,2013-05-20 07:15:00
2:35 AM,72.5,63.5,73,29.84,10.0,South,6.9,-,N/A,,Clear,180,2013-05-20 07:35:00
3:15 AM,71.1,64.8,80,29.83,10.0,South,8.1,-,N/A,,Scattered Clouds,170,2013-05-20 08:15:00
3:35 AM,70.7,65.3,83,29.82,7.0,SSE,5.8,-,N/A,,Scattered Clouds,160,2013-05-20 08:35:00
3:55 AM,69.8,65.3,86,29.81,7.0,SSE,5.8,-,N/A,,Clear,160,2013-05-20 08:55:00
4:35 AM,69.8,65.8,87,29.82,7.0,South,6.9,-,N/A,,Scattered Clouds,170,2013-05-20 09:35:00
4:55 AM,69.4,66.0,89,29.84,7.0,South,4.6,-,N/A,,Clear,190,2013-05-20 09:55:00
5:15 AM,69.1,66.2,91,29.85,7.0,South,5.8,-,N/A,,Clear,180,2013-05-20 10:15:00
5:35 AM,68.9,66.6,92,29.85,5.0,South,5.8,-,N/A,,Clear,180,2013-05-20 10:35:00
5:55 AM,69.3,66.7,92,29.86,5.0,South,5.8,-,N/A,,Clear,180,2013-05-20 10:55:00
6:15 AM,69.8,67.1,91,29.86,5.0,South,8.1,-,N/A,,Clear,170,2013-05-20 11:15:00
6:35 AM,70.2,67.3,91,29.86,7.0,South,10.4,-,N/A,,Clear,180,2013-05-20 11:35:00
6:55 AM,71.1,67.1,87,29.87,7.0,South,6.9,-,N/A,,Scattered Clouds,190,2013-05-20 11:55:00
7:15 AM,72.1,66.9,84,29.87,10.0,South,9.2,16.1,N/A,,Mostly Cloudy,190,2013-05-20 12:15:00
7:35 AM,73.0,65.5,77,29.87,10.0,SW,13.8,18.4,N/A,,Mostly Cloudy,220,2013-05-20 12:35:00
7:55 AM,73.9,65.5,75,29.87,10.0,SSW,12.7,-,N/A,,Mostly Cloudy,200,2013-05-20 12:55:00
8:15 AM,74.7,65.3,73,29.87,10.0,SSW,11.5,18.4,N/A,,Mostly Cloudy,210,2013-05-20 13:15:00
8:35 AM,76.3,65.3,69,29.86,10.0,SW,15.0,19.6,N/A,,Scattered Clouds,220,2013-05-20 13:35:00
8:55 AM,76.8,64.8,66,29.86,10.0,SW,15.0,23.0,N/A,,Scattered Clouds,220,2013-05-20 13:55:00
9:15 AM,77.4,64.0,63,29.85,10.0,SW,13.8,21.9,N/A,,Scattered Clouds,220,2013-05-20 14:15:00
9:35 AM,78.4,64.4,62,29.84,10.0,SW,15.0,19.6,N/A,,Scattered Clouds,220,2013-05-20 14:35:00
9:55 AM,78.8,63.7,60,29.86,10.0,SW,16.1,21.9,N/A,,Clear,220,2013-05-20 14:55:00
10:35 AM,81.3,63.3,54,29.86,10.0,South,11.5,18.4,N/A,,Clear,190,2013-05-20 15:35:00
10:55 AM,81.9,62.6,52,29.85,10.0,South,12.7,19.6,N/A,,Clear,190,2013-05-20 15:55:00
11:15 AM,81.1,60.8,50,29.83,10.0,South,10.4,16.1,N/A,,Scattered Clouds,170,2013-05-20 16:15:00
11:35 AM,81.0,59.9,49,29.84,10.0,South,10.4,18.4,N/A,,Scattered Clouds,180,2013-05-20 16:35:00
11:55 AM,80.6,59.5,49,29.84,10.0,South,11.5,19.6,N/A,,Clear,190,2013-05-20 16:55:00
12:15 PM,80.6,59.7,49,29.83,10.0,SSW,11.5,18.4,N/A,,Clear,200,2013-05-20 17:15:00
12:35 PM,81.9,57.7,44,29.83,10.0,SSW,11.5,-,N/A,,Clear,200,2013-05-20 17:35:00
12:55 PM,83.7,57.9,41,29.82,10.0,SSW,11.5,20.7,N/A,,Clear,200,2013-05-20 17:55:00
1:15 PM,83.7,59.0,43,29.83,10.0,South,12.7,20.7,N/A,,Clear,180,2013-05-20 18:15:00
1:55 PM,85.8,60.6,43,29.83,10.0,SSW,15.0,-,N/A,,Clear,200,2013-05-20 18:55:00
2:15 PM,85.3,60.8,44,29.83,10.0,SW,18.4,24.2,N/A,,Scattered Clouds,220,2013-05-20 19:15:00
2:35 PM,85.6,55.2,35,29.83,10.0,SW,17.3,25.3,N/A,,Mostly Cloudy,220,2013-05-20 19:35:00
2:55 PM,86.9,53.8,32,29.83,10.0,SW,15.0,27.6,N/A,,Scattered Clouds,220,2013-05-20 19:55:00
3:15 PM,87.4,54.3,32,29.82,10.0,SSW,15.0,25.3,N/A,,Mostly Cloudy,200,2013-05-20 20:15:00
3:35 PM,87.1,53.2,31,29.82,10.0,SW,23.0,26.5,N/A,,Scattered Clouds,220,2013-05-20 20:35:00
3:55 PM,86.0,54.1,33,29.81,10.0,SW,18.4,26.5,N/A,,Scattered Clouds,220,2013-05-20 20:55:00
4:15 PM,86.4,58.1,38,29.82,10.0,SW,20.7,32.2,N/A,,Scattered Clouds,220,2013-05-20 21:15:00
4:35 PM,86.5,56.3,36,29.81,10.0,SSW,20.7,26.5,N/A,,Scattered Clouds,210,2013-05-20 21:35:00
4:55 PM,87.8,52.2,29,29.80,10.0,SW,18.4,27.6,N/A,,Clear,220,2013-05-20 21:55:00
5:15 PM,86.4,57.4,37,29.79,10.0,South,20.7,25.3,N/A,,Scattered Clouds,190,2013-05-20 22:15:00
5:35 PM,85.3,59.4,41,29.79,10.0,South,16.1,26.5,N/A,,Clear,190,2013-05-20 22:35:00
5:55 PM,85.3,59.7,42,29.78,10.0,South,12.7,26.5,N/A,,Clear,190,2013-05-20 22:55:00
6:15 PM,85.1,60.6,44,29.77,10.0,SSW,11.5,20.7,N/A,,Clear,200,2013-05-20 23:15:00
6:35 PM,84.2,60.4,45,29.77,10.0,South,10.4,23.0,N/A,,Clear,190,2013-05-20 23:35:00
6:55 PM,84.0,61.0,46,29.78,10.0,SSW,16.1,26.5,N/A,,Scattered Clouds,200,2013-05-20 23:55:00
7:15 PM,83.1,61.7,48,29.78,10.0,SSW,15.0,23.0,N/A,,Clear,210,2013-05-21 00:15:00
7:35 PM,82.0,61.9,50,29.78,10.0,SSW,13.8,23.0,N/A,,Clear,200,2013-05-21 00:35:00
7:55 PM,81.5,61.9,51,29.78,10.0,SSW,11.5,19.6,N/A,,Mostly Cloudy,210,2013-05-21 00:55:00
8:15 PM,80.2,62.1,54,29.78,10.0,South,10.4,19.6,N/A,,Scattered Clouds,190,2013-05-21 01:15:00
8:35 PM,79.0,62.1,56,29.79,10.0,SSW,8.1,-,N/A,,Clear,200,2013-05-21 01:35:00
9:15 PM,77.4,61.7,58,29.80,10.0,South,8.1,-,N/A,,Clear,190,2013-05-21 02:15:00
9:35 PM,76.8,61.7,59,29.80,10.0,South,9.2,16.1,N/A,,Clear,190,2013-05-21 02:35:00
9:55 PM,76.3,61.0,59,29.80,10.0,South,11.5,17.3,N/A,,Clear,190,2013-05-21 02:55:00
10:15 PM,76.1,61.3,60,29.80,10.0,South,9.2,-,N/A,,Scattered Clouds,190,2013-05-21 03:15:00
10:35 PM,75.6,61.7,62,29.79,10.0,South,10.4,17.3,N/A,,Scattered Clouds,180,2013-05-21 03:35:00
10:55 PM,75.6,62.1,63,29.79,10.0,South,9.2,-,N/A,,Clear,180,2013-05-21 03:55:00
11:15 PM,75.4,62.4,64,29.78,10.0,South,8.1,-,N/A,,Clear,180,2013-05-21 04:15:00
11:35 PM,75.2,62.6,65,29.79,10.0,South,9.2,-,N/A,,Clear,180,2013-05-21 04:35:00
11:55 PM,74.7,62.8,66,29.79,10.0,South,8.1,-,N/A,,Scattered Clouds,180,2013-05-21 04:55:00